Location: Losili
(4.4086°N, 32.7049°E)
Time: 02:40:31
(UTC+00:00)

ADEOS Rocket - Pass Details

Date: 18 September 2019
Orbit: 859 x 1306 km, 98.7° (Epoch: 19 October)

Event Time Altitude Azimuth Distance (km) Brightness Sun altitude
Rises 16:54:03 0° 24° (NNE) 4,245 6.1 -17.5°
Reaches altitude 10° 16:56:51 10° 30° (NNE) 3,299 5.5 -18.2°
Maximum altitude 17:04:14 49° 102° (ESE) 1,637 3.7 -20.0°
Drops below altitude 10° 17:11:31 10° 175° (S) 3,263 5.6 -21.8°
Sets 17:14:15 0° 180° (S) 4,196 6.3 -22.5°
